Regional Weather Roundup
Issued by NWS

Home | Current Version | Previous Version | Graphics & Text | Print | Product List | Glossary On
Versions: 1 2 3 4 5 6 7 8 9 10 11 12 13 14 15 16 17 18 19 20 21 22 23 24 25 26 27 28 29 30 31 32 33 34 35 36 37 38 39 40 41 42 43 44 45 46 47 48 49 50
000
ASUS43 KLMK 260202
RWRKY
KENTUCKY REGIONAL WEATHER ROUNDUP
NATIONAL WEATHER SERVICE LOUISVILLE KY
1000 PM EDT THU MAY 25 2017

NOTE "FAIR" INDICATES FEW OR NO CLOUDS BELOW 12,000 FEET
WITH NO SIGNIFICANT WEATHER AND/OR OBSTRUCTIONS TO VISIBILITY.

KYZ001>023-026-027-061>063-070>075-260300-
WESTERN AND SOUTH CENTRAL KENTUCKY

CITY           SKY/WX    TMP DP  RH WIND       PRES   REMARKS
PADUCAH        CLEAR     67  48  50 S3        29.76R
HENDERSON      CLEAR     63  56  78 CALM      29.78R
OWENSBORO      CLEAR     64  57  78 SW3       29.78R
HOPKINSVILLE   CLEAR     64  53  67 S3        29.80R
BOWLING GREEN  CLEAR     66  53  63 SW3       29.81R
GLASGOW        NOT AVBL
$$

KYZ024-025-028>034-038-045-046-053-260300-
NORTH CENTRAL KENTUCKY

CITY           SKY/WX    TMP DP  RH WIND       PRES   REMARKS
LOUISVILLE/SDF PTCLDY    64  56  75 NW5       29.76R
LOUISVILLE/LOU CLEAR     64  57  78 CALM      29.77R
FORT KNOX      CLEAR     62  56  81 SW3       29.76R
$$

KYZ035>037-039>044-047>052-055>060-089>105-260300-
NORTHEAST KENTUCKY

CITY           SKY/WX    TMP DP  RH WIND       PRES   REMARKS
LEXINGTON      MOCLDY    61  53  75 W8        29.78R
COVINGTON      CLOUDY    61  57  87 W9        29.73R
FRANKFORT      PTCLDY    61  52  72 W6        29.76R
$$

KYZ054-064>069-076>088-106>120-260300-
SOUTHEAST KENTUCKY

CITY           SKY/WX    TMP DP  RH WIND       PRES   REMARKS
JACKSON        CLOUDY    58  57  97 VRB3      29.78R FOG
LONDON         MOCLDY    60  55  83 W3        29.80R
SOMERSET       NOT AVBL
MIDDLESBORO    CLOUDY    62  56  81 CALM      29.82R
MONTICELLO     CLEAR     60  55  83 W13       29.83R
$$





USA.gov is the U.S. government's official web portal to all federal, state and local government web resources and services.